Regional Weather Roundup
Issued by NWS Upton, NY

Current Version | Previous Version | Text Only | Print | Product List | Glossary On
Versions: 1 2 3 4 5 6 7 8 9 10 11 12 13 14 15 16 17 18 19 20 21 22 23 24 25 26 27 28 29 30 31 32 33 34 35 36 37 38 39 40 41 42 43 44 45 46 47 48 49 50
000
ASUS41 KOKX 250207
RWROKX

REGIONAL WEATHER ROUNDUP
NATIONAL WEATHER SERVICE NEW YORK NY
1000 PM EDT FRI APR 24 2015

NOTE: "FAIR" INDICATES FEW OR NO CLOUDS BELOW 12,000 FEET WITH NO
SIGNIFICANT WEATHER AND/OR OBSTRUCTIONS TO VISIBILITY.

NYZ071-072-176-178-NJZ106-104-250300-
NEW YORK CITY METRO AREA


CITY           SKY/WX    TMP DP  RH WIND       PRES   REMARKS
CENTRAL PARK   CLEAR     41  20  43 N9        29.95R
LAGUARDIA APRT CLEAR     42  21  43 N23G32    29.92S
KENNEDY INTL   CLEAR     42  19  39 N23G33    29.92R
NEWARK/LIBERTY PTCLDY    42  21  43 N14G24    29.93R
BRNX BOT. GARD   N/A     39  21  48 NW6       29.94S WCI  35
TETERBORO      CLEAR     40  20  44 NW15G21   29.93R WCI  32
$$

NYZ177-179-078>081-250300-
LONG ISLAND NEW YORK

CITY           SKY/WX    TMP DP  RH WIND       PRES   REMARKS
FARMINGDALE    CLEAR     40  21  46 N12       29.91R WCI  33
ISLIP          PTCLDY    40  22  48 NW17G26   29.88R WCI  31
SHIRLEY        MOCLDY    41  22  46 NW14      29.90R
WESTHAMPTON    CLEAR     40  20  44 NW15G23   29.90R WCI  32
MONTAUK POINT    N/A     42  23  46 NW14G23   29.87R
$$

NYZ052-065-067-250300-
HUDSON VALLEY

CITY           SKY/WX    TMP DP  RH WIND       PRES   REMARKS
WHITE PLAINS   PTCLDY    37  19  48 NW22G35   29.89S WCI  26
NEWBURGH       PTCLDY    36  21  55 NW6G14    29.94R WCI  31
MONTGOMERY     CLEAR     36  20  52 NW9       29.92F WCI  29
POUGHKEEPSIE   CLEAR     37  20  50 NW7       29.93S WCI  32
ALBANY         CLOUDY    38  20  48 NW15      29.93R WCI  29
$$

NJZ001-105-106-008-010-013-015-019>022-104-250300-
NEW JERSEY

CITY           SKY/WX    TMP DP  RH WIND       PRES   REMARKS
NEWARK/LIBERTY PTCLDY    42  21  43 N14G24    29.93R
TETERBORO      CLEAR     40  20  44 NW15G21   29.93R WCI  32
CALDWELL       CLEAR     39  20  46 N7        29.94S WCI  34
MORRISTOWN     CLEAR     39  21  48 N12G17    29.95R WCI  32
SOMERVILLE     CLEAR     42  20  41 N8        29.92R
SUSSEX         CLEAR     37  21  52 VRB7      29.95S WCI  32
ANDOVER          N/A     37  21  52 N8        29.94R WCI  31
TRENTON        CLEAR     43  19  38 NE5       29.93R
MILLVILLE      CLEAR     37  26  64 W5        29.91S WCI  33
ATLANTIC CITY  CLEAR     47  20  34 W3        29.90S
WRIGHTSTOWN    CLEAR     42  22  44 N7        29.91R
TOMS RIVER     CLEAR     39  23  52 CALM      29.93R
BELMAR         CLEAR     43  19  39 N9        29.92S
$$

PAZ047>061-062-071-250300-
EASTERN PENNSYLVANIA

CITY           SKY/WX    TMP DP  RH WIND       PRES   REMARKS
PHILADELPHIA   CLEAR     51  18  27 N10       29.93R
ALLENTOWN      CLEAR     41  22  46 N6        29.95R
SCRANTON       PTCLDY    37  21  52 N5        29.94S WCI  33
$$

CTZ002-004>006-009-010-012-RIZ004-006-007-MAZ004-011-015-250300-
SOUTHERN NEW ENGLAND
 IN CT

CITY           SKY/WX    TMP DP  RH WIND       PRES   REMARKS
BRADLEY INTL   MOCLDY    40  19  43 NW17G26   29.88R WCI  31
HARTFORD       CLOUDY    40  18  41 NW14G25   29.89R WCI  32
DANBURY        MOCLDY    37  18  46 NW10G16   29.92R WCI  30
WTRBRY/OXFORD  CLEAR     36  16  44 N16G24    29.89S WCI  26
BRIDGEPORT     CLEAR     40  21  46 NW10G20   29.91R WCI  33
MERIDEN        CLOUDY    40  18  41 NW13      29.89R WCI  32
NEW HAVEN      CLEAR     40  20  44 NW9G21    29.89R WCI  34
CHESTER        FAIR      37  19  48 NW13G22   29.87R WCI  29
GROTON         PTCLDY    40  19  43 NW12G21   29.85R WCI  33
WILLIMANTIC    CLOUDY    39  20  46 NW12      29.86R WCI  32

 IN RI

CITY           SKY/WX    TMP DP  RH WIND       PRES   REMARKS
PROVIDENCE     PTCLDY    40  21  46 W10       29.82R WCI  33
BLOCK ISLAND   CLEAR     39  21  48 NW13G21   29.84S WCI  32
WESTERLY       CLEAR     40  20  44 VRB6      29.85R

 IN MA

CITY           SKY/WX    TMP DP  RH WIND       PRES   REMARKS
BOSTON         MOCLDY    44  21  40 NW17G29   29.79S
WORCESTER      CLOUDY    36  21  54 W12G21    29.80R WCI  28
WESTFIELD      CLOUDY    39  19  44 NW18G24   29.87R WCI  30
PROVINCETOWN   CLOUDY   N/A N/A N/A NW13      29.77R
NANTUCKET      CLEAR     44  27  51 NW14G23   29.77R
$$

ANZ330-335-338-340-345-350-353-355-250300-
COASTAL MARINE OBSERVATIONS


STATION/POSITION TIME  SKY/WX   TEMP    WIND        PRES    VSBY  WAVE
                                AIR SEA DIR/SP/G                  HT/PER
                 (UTC)          (F)     (DEG/KT/KT) (MB)    (MI)  (FT/S)
NY HARB ENTRANCE 0150            43 44  340/ 21/ 25 1012.4          3/ 4
4S FIRE IS       0103               43                N/A           3/ 4
20S FIRE ISLAND  0150            42 43  340/ 23/ 29 1011.9          5/ 6
23SW MTP         0150                                 N/A           4/ 5
HUDSON CANYON    NOT AVBL
EXECUTION ROCKS  NOT AVBL
WESTERN LI SOUND NOT AVBL
CENTRAL LI SOUND NOT AVBL
EASTERN LI SOUND 0100            42     310/ 14/ 17   N/A
ROBBINS REEF     0100            42     350/ 18/ 23 1011.9
$$


>>>>>>>>>>>>>>>>>>>>>>>>>>>> KEY <<<<<<<<<<<<<<<<<<<<<<<<<<<
>                                                          <
>     SKY/WX - SKY CONDITION/PRESENT WEATHER               <
>     TMP    - TEMPERATURE IN FAHRENHEIT                   <
>     DP     - DEWPOINT IN FAHRENHEIT                      <
>     RH     - RELATIVE HUMIDITY IN PERCENT                <
>     WIND   - DIRECTION AND SPEED IN MPH                  <
>     PRES   - MEAN SEA LEVEL PRESSURE IN INCHES OF HG     <
>     WCI    - WIND CHILL INDEX                            <
>     VSB    - VISIBILITY IN MILES                         <
>     HX     - HEAT INDEX                                  <
>     TC     - TEMPERATURE IN CELSIUS                      <
>     VRB    - VARIABLE WIND DIRECTION                     <
>                                                          <
>>>>>>>>>>>>>>>>>>>>>>>>>>>> KEY <<<<<<<<<<<<<<<<<<<<<<<<<<<




USA.gov is the U.S. government's official web portal to all federal, state and local government web resources and services.